7 * 24
多渠道服务支持
STARLINK-34459 是 SpaceX Starlink 卫星互联网项目中的一颗低轨卫星,属于第三代星链卫星(v1.5)。该卫星于2023年发射,运行在约550公里高度的近地轨道,旨在为全球用户提供高速互联网服务。它采用先进推进系统和激光通信技术,提高网络稳定性和数据传输效率。Starlink 项目由数千颗卫星组成,致力于实现全球覆盖,尤其关注偏远地区网络接入。STARLINK-34459 的运行有助于增强 Starlink 网络的容量和可靠性。
美国
(US)
| 数据来源 | 国际轨道数据 |
| 星历时间: | 2025-11-09T00:09:56+0800 22小时前 查看轨道信息 |
| 半长轴: | 6853.317km |
| 偏心率: | 0.000192 |
| 轨道倾角: | 53.162° |
| 近地点辐角 | 86.259° |
| 升交点赤经 | 290.736° |
| 平近点角 | 273.863° |
| 近地点: | 473.866km |
| 远地点: | 476.498km |
| 周期: | 94.105分钟 |
| 每日圈数: | 15.30212 |